Location: Palmerston North
(40.3500°S, 175.6170°E)
Time: 16:18:40
(UTC+13:00)

ISS - Pass Details

Date: 29 October 2019
Orbit: 412 x 421 km, 51.6° (Epoch: 17 November)

Event Time Altitude Azimuth Distance (km) Brightness Sun altitude
Rises 20:52:21 0° 234° (SW) 2,383 2.1 -11.3°
Reaches altitude 10° 20:55:25 10° 203° (SSW) 1,519 -0.1 -11.8°
Maximum altitude 20:57:03 13° 175° (S) 1,360 -0.9 -12.0°
Drops below altitude 10° 20:58:40 10° 146° (SSE) 1,520 -1.0 -12.3°
Enters shadow 21:00:47 - 123° (ESE) 2,071 -0.5 -12.7°
